Weather History for Williamtown, NW

Change the Weather History Date:

Sunday, December 29, 2013

  Actual Average Record
Temperature  
Mean Temperature 68 °F -  
Max Temperature 75 °F - - ()
Min Temperature 62 °F - - ()
Cooling Degree Days 4    
Growing Degree Days 18 (Base 50)    
Moisture  
Dew Point 60 °F    
Average Humidity 72    
Maximum Humidity 100    
Minimum Humidity 42    
Precipitation  
Precipitation 0.00 in - - ()
Sea Level Pressure  
Sea Level Pressure 29.80 in    
Wind  
Wind Speed 11 mph ()    
Max Wind Speed 31 mph    
Max Gust Speed 44 mph    
Visibility 5.7 miles    
Events      
T = Trace of Precipitation, MM = Missing Value Source: Averaged Metar Reports

Daily Weather History Graph

Daily Weather History Graph

Search for Another Location

Airport:

Trip Planner

Search our weather history database for the weather conditions in past years. The results will help you decide how hot, cold, wet, or windy it might be!

Date:

Astronomy

Dec. 29, 2013 Rise Set
Actual Time 5:45 AM AEDT 8:03 PM AEDT
Civil Twilight 5:17 AM AEDT 8:31 PM AEDT
Nautical Twilight 4:42 AM AEDT 9:06 PM AEDT
Astronomical Twilight 4:04 AM AEDT 9:44 PM AEDT
Moon 2:33 AM AEDT (12/29) 4:29 PM AEDT (12/29)
Length of Visible Light 15h 14m
Length of Day
14h 17m
Waning Crescent, 16% of the Moon is Illuminated
Dec 29
Waning Crescent
Jan 1
New
Jan 8
First Quarter
Jan 16
Full
Jan 24
Last Quarter

Hourly Weather History & Observations

Time (AEDT) Temp. Dew Point Humidity Pressure Visibility Wind Dir Wind Speed Gust Speed Precip Events Conditions
12:00 AM 71 °F 64 °F 74% 29.69 in - NE 5.8 mph - -  
12:00 AM 69.8 °F 64.4 °F 83% 29.68 in 6.2 mi NE 5.8 mph - N/A   Unknown
12:30 AM 69.8 °F 64.4 °F 83% 29.68 in 6.2 mi NNE 4.6 mph - N/A   Unknown
1:00 AM 68.0 °F 64.4 °F 88% 29.65 in 6.2 mi NNE 4.6 mph - N/A   Unknown
1:30 AM 68.0 °F 64.4 °F 88% 29.65 in 6.2 mi North 1.2 mph - N/A   Unknown
2:00 AM 67 °F 65 °F 89% 29.65 in - NNE 1.2 mph - -  
2:00 AM 68.0 °F 64.4 °F 88% 29.65 in 6.2 mi NNE 1.2 mph - N/A   Unknown
2:30 AM 68.0 °F 64.4 °F 88% 29.62 in 6.2 mi NNE 5.8 mph - N/A   Unknown
3:00 AM 68 °F 65 °F 85% 29.62 in - NNE 3.5 mph - -  
3:00 AM 68.0 °F 64.4 °F 88% 29.59 in 6.2 mi NNE 3.5 mph - N/A   Unknown
3:30 AM 66.2 °F 64.4 °F 94% 29.59 in 6.2 mi NNE 4.6 mph - N/A   Unknown
4:00 AM 64.4 °F 62.6 °F 94% 29.59 in 6.2 mi North 3.5 mph - N/A   Unknown
4:30 AM 64.4 °F 62.6 °F 94% 29.59 in 6.2 mi Calm Calm - N/A   Unknown
5:00 AM 63 °F 62 °F 93% 29.60 in - Calm Calm - -  
5:00 AM 62.6 °F 60.8 °F 94% 29.59 in 6.2 mi Calm Calm - N/A   Unknown
5:30 AM 66.2 °F 64.4 °F 94% 29.59 in 6.2 mi NW 5.8 mph - N/A   Unknown
6:00 AM 64 °F 64 °F 99% 29.62 in - North 3.5 mph - -  
6:00 AM 64.4 °F 64.4 °F 100% 29.59 in 6.2 mi North 3.5 mph - N/A   Unknown
6:30 AM 64.4 °F 62.6 °F 94% 29.59 in 6.2 mi Calm Calm - N/A   Unknown
7:00 AM 68.0 °F 66.2 °F 94% 29.62 in 6.2 mi Calm Calm - N/A   Unknown
7:24 AM 71.6 °F 68.0 °F 88% 29.68 in 6.2 mi SSW 17.3 mph 28.8 mph N/A   Unknown
7:30 AM 71.6 °F 66.2 °F 83% 29.68 in 6.2 mi SW 17.3 mph 31.1 mph N/A   Unknown
7:53 AM 71.6 °F 66.2 °F 83% 29.71 in 6.2 mi SSW 21.9 mph 34.5 mph N/A   Mostly Cloudy
8:00 AM 72 °F 66 °F 77% 29.72 in - SSW 24.2 mph - -  
8:00 AM 71.6 °F 66.2 °F 83% 29.71 in 5.6 mi SSW 24.2 mph - N/A   Mostly Cloudy
8:12 AM 71.6 °F 66.2 °F 83% 29.71 in 5.0 mi SSW 23.0 mph 34.5 mph N/A   Overcast
8:30 AM 71.6 °F 64.4 °F 78% 29.71 in 5.0 mi South 26.5 mph 41.4 mph N/A   Overcast
9:00 AM 72 °F 65 °F 71% 29.76 in 4 mi SSW 26.5 mph - -   Overcast
9:00 AM 71.6 °F 64.4 °F 78% 29.74 in 4.3 mi SSW 26.5 mph - N/A   Overcast
9:05 AM 73.4 °F 64.4 °F 73% 29.74 in 4.3 mi SSW 27.6 mph 43.7 mph N/A   Overcast
9:30 AM 73.4 °F 64.4 °F 73% 29.77 in 3.7 mi SSW 24.2 mph 35.7 mph N/A   Overcast
9:49 AM 75.2 °F 64.4 °F 69% 29.77 in 4.3 mi SSW 25.3 mph 38.0 mph N/A   Overcast
10:01 AM 73.4 °F 62.6 °F 69% 29.77 in 3.7 mi SSW 31.1 mph - N/A   Overcast
10:02 AM 73.4 °F 62.6 °F 69% 29.80 in 3.7 mi SSW 29.9 mph 41.4 mph N/A   Overcast
10:30 AM 73.4 °F 62.6 °F 69% 29.80 in 4.3 mi SSW 27.6 mph - N/A   Overcast
10:56 AM 71.6 °F 62.6 °F 73% 29.83 in 4.3 mi SSW 26.5 mph - N/A   Overcast
11:00 AM 71 °F 62 °F 65% 29.84 in - SSW 26.5 mph - -  
11:03 AM 71.6 °F 60.8 °F 69% 29.83 in 4.3 mi SSW 26.5 mph 38.0 mph N/A   Overcast
12:00 PM 73 °F 61 °F 56% 29.87 in 4 mi SSW 24.2 mph - -   Overcast
12:01 PM 73.4 °F 60.8 °F 65% 29.86 in 4.3 mi SSW 25.3 mph 36.8 mph N/A   Overcast
12:30 PM 71.6 °F 59.0 °F 64% 29.86 in 5.0 mi South 24.2 mph - N/A   Overcast
12:52 PM 71.6 °F 59.0 °F 64% 29.86 in 5.6 mi South 24.2 mph 35.7 mph N/A   Overcast
1:00 PM 71.6 °F 59.0 °F 64% 29.86 in 5.6 mi South 21.9 mph - N/A   Overcast
1:12 PM 71.6 °F 59.0 °F 64% 29.89 in 5.6 mi South 24.2 mph 35.7 mph N/A   Overcast
2:00 PM 72 °F 58 °F 52% 29.89 in - South 21.9 mph - -  
2:00 PM 71.6 °F 59.0 °F 64% 29.89 in 6.2 mi South 21.9 mph - N/A   Overcast
2:02 PM 71.6 °F 57.2 °F 60% 29.89 in 6.2 mi South 23.0 mph 34.5 mph N/A   Overcast
2:34 PM 71.6 °F 55.4 °F 57% 29.89 in 6.2 mi South 21.9 mph 33.4 mph N/A   Overcast
3:00 PM 72 °F 56 °F 47% 29.90 in - South 24.2 mph - -   Overcast
3:00 PM 73.4 °F 55.4 °F 53% 29.89 in 6.2 mi South 24.2 mph - N/A   Overcast
3:30 PM 73.4 °F 55.4 °F 53% 29.89 in 6.2 mi South 25.3 mph - N/A   Overcast
4:00 PM 73.4 °F 55.4 °F 53% 29.89 in 6.2 mi South 23.0 mph - N/A   Overcast
4:30 PM 73.4 °F 55.4 °F 53% 29.89 in 6.2 mi South 21.9 mph - N/A   Overcast
5:00 PM 74 °F 55 °F 42% 29.90 in - South 20.7 mph - -  
5:00 PM 73.4 °F 55.4 °F 53% 29.89 in 6.2 mi South 20.7 mph - N/A   Overcast
5:30 PM 73.4 °F 55.4 °F 53% 29.89 in 6.2 mi South 17.3 mph - N/A   Overcast
6:00 PM 73 °F 56 °F 44% 29.92 in - South 18.4 mph - -   Overcast
6:00 PM 73.4 °F 55.4 °F 53% 29.92 in 6.2 mi South 18.4 mph - N/A   Overcast
6:30 PM 71.6 °F 55.4 °F 57% 29.92 in 6.2 mi South 17.3 mph - N/A   Overcast
7:00 PM 69.8 °F 55.4 °F 60% 29.92 in 6.2 mi South 17.3 mph - N/A   Overcast
7:30 PM 69.8 °F 55.4 °F 60% 29.95 in 6.2 mi SSE 15.0 mph - N/A   Overcast
8:00 PM 68 °F 55 °F 55% 29.96 in - SSE 12.7 mph - -  
8:00 PM 68.0 °F 55.4 °F 64% 29.95 in 6.2 mi SSE 12.7 mph - N/A   Overcast
8:30 PM 68.0 °F 55.4 °F 64% 29.98 in 6.2 mi SSE 10.4 mph - N/A   Overcast
9:00 PM 65 °F 56 °F 64% 29.99 in - SE 8.1 mph - -   Overcast
9:00 PM 66.2 °F 55.4 °F 68% 29.98 in 6.2 mi SE 8.1 mph - N/A   Overcast
9:30 PM 66.2 °F 55.4 °F 68% 29.98 in 6.2 mi SSE 9.2 mph - N/A   Overcast
10:00 PM 64.4 °F 55.4 °F 73% 29.98 in 6.2 mi SE 8.1 mph - N/A   Mostly Cloudy
10:30 PM 64.4 °F 55.4 °F 73% 30.01 in 6.2 mi SE 6.9 mph - N/A   Mostly Cloudy
11:00 PM 65 °F 56 °F 66% 30.01 in - SE 5.8 mph - -  
11:00 PM 64.4 °F 57.2 °F 77% 30.01 in 6.2 mi SE 5.8 mph - N/A   Overcast
11:30 PM 64.4 °F 51.8 °F 64% 30.01 in 6.2 mi SE 10.4 mph - N/A   Mostly Cloudy